Weather History for Sheldon, IA

Change the Weather History Date:

Tuesday, March 5, 2013

  Actual Average Record
Temperature  
Mean Temperature 24 °F -  
Max Temperature 28 °F 37 °F 70 °F (1991)
Min Temperature 21 °F 17 °F -22 °F (1960)
Degree Days  
Heating Degree Days 40    
Moisture  
Dew Point 22 °F    
Average Humidity 86    
Maximum Humidity 100    
Minimum Humidity 74    
Precipitation  
Precipitation 0.00 in - - ()
Sea Level Pressure  
Sea Level Pressure 30.11 in    
Wind  
Wind Speed 17 mph (NW)    
Max Wind Speed 30 mph    
Max Gust Speed 40 mph    
Visibility 9 miles    
Events Rain , Snow    
Averages and records for this station are not official NWS values.
T = Trace of Precipitation, MM = Missing Value Source: NWS Daily Summary

Daily Weather History Graph

Daily Weather History Graph

Search for Another Location

Airport:

Trip Planner

Search our weather history database for the weather conditions in past years. The results will help you decide how hot, cold, wet, or windy it might be!

Date:

Astronomy

Mar. 05, 2013 Rise Set
Actual Time 6:52 AM CST 6:17 PM CST
Civil Twilight 6:23 AM CST 6:46 PM CST
Nautical Twilight 5:50 AM CST 7:19 PM CST
Astronomical Twilight 5:17 AM CST 7:52 PM CST
Moon 2:12 AM CST (3/5) 11:50 AM CST (3/5)
Length of Visible Light 12h 22m
Length of Day
11h 25m
Last Quarter, 40% of the Moon is Illuminated
Mar 5
Last Quarter
Mar 11
New
Mar 19
First Quarter
Mar 27
Full
Apr 2
Last Quarter

Hourly Weather History & Observations

Time (CST) Temp. Windchill Dew Point Humidity Pressure Visibility Wind Dir Wind Speed Gust Speed Precip Events Conditions
12:15 AM 28.4 °F 18.5 °F 23.0 °F 80% 29.94 in 10.0 mi WNW 11.5 mph 18.4 mph N/A   Overcast
12:35 AM 28.4 °F 18.5 °F 23.0 °F 80% 29.94 in 10.0 mi WNW 11.5 mph - N/A   Overcast
12:55 AM 26.6 °F 14.7 °F 23.0 °F 86% 29.95 in 10.0 mi West 15.0 mph 20.7 mph N/A   Overcast
1:15 AM 26.6 °F 15.7 °F 23.0 °F 86% 29.95 in 10.0 mi West 12.7 mph - N/A   Overcast
1:35 AM 26.6 °F 14.7 °F 23.0 °F 86% 29.95 in 10.0 mi West 15.0 mph 20.7 mph N/A   Overcast
1:55 AM 26.6 °F 14.3 °F 21.2 °F 80% 29.95 in 10.0 mi WNW 16.1 mph - N/A   Overcast
2:15 AM 24.8 °F 12.4 °F 23.0 °F 93% 29.95 in 10.0 mi West 15.0 mph 21.9 mph N/A   Overcast
2:35 AM 24.8 °F 13.4 °F 23.0 °F 93% 29.95 in 9.0 mi West 12.7 mph 21.9 mph N/A Snow Light Snow
2:55 AM 24.8 °F 12.4 °F 23.0 °F 93% 29.94 in 10.0 mi West 15.0 mph - N/A Rain Light Freezing Rain
3:15 AM 24.8 °F 12.9 °F 21.2 °F 86% 29.94 in 10.0 mi West 13.8 mph - N/A   Mostly Cloudy
3:35 AM 24.8 °F 12.9 °F 21.2 °F 86% 29.94 in 10.0 mi West 13.8 mph - N/A   Overcast
3:55 AM 24.8 °F 12.9 °F 21.2 °F 86% 29.94 in 10.0 mi West 13.8 mph - N/A   Overcast
4:15 AM 24.8 °F 14.6 °F 21.2 °F 86% 29.94 in 10.0 mi West 10.4 mph - N/A   Overcast
4:35 AM 24.8 °F 13.4 °F 21.2 °F 86% 29.93 in 10.0 mi West 12.7 mph - N/A   Overcast
4:55 AM 24.8 °F 12.9 °F 23.0 °F 93% 29.93 in 10.0 mi West 13.8 mph - N/A   Overcast
5:15 AM 24.8 °F 14.6 °F 23.0 °F 93% 29.93 in 6.0 mi West 10.4 mph - N/A Snow Light Snow
5:35 AM 24.8 °F 13.4 °F 23.0 °F 93% 29.93 in 6.0 mi West 12.7 mph - N/A Snow Light Snow
6:15 AM 24.8 °F 14.6 °F 24.8 °F 100% 29.94 in 2.5 mi West 10.4 mph - N/A Snow Light Snow
6:35 AM 24.8 °F 16.1 °F 24.8 °F 100% 29.94 in 5.0 mi WNW 8.1 mph - N/A Snow Light Snow
7:35 AM 24.8 °F 14.0 °F 24.8 °F 100% 29.97 in 8.0 mi NW 11.5 mph - N/A Snow Light Snow
7:55 AM 24.8 °F 12.4 °F 24.8 °F 100% 29.98 in 8.0 mi NW 15.0 mph - N/A Rain Light Freezing Rain
8:15 AM 24.8 °F 11.5 °F 24.8 °F 100% 29.99 in 9.0 mi NW 17.3 mph - N/A   Overcast
8:35 AM 24.8 °F 12.4 °F 24.8 °F 100% 30.00 in 10.0 mi NW 15.0 mph - N/A   Overcast
8:55 AM 26.6 °F 14.3 °F 24.8 °F 93% 30.01 in 10.0 mi NW 16.1 mph - N/A   Overcast
9:15 AM 26.6 °F 13.1 °F 24.8 °F 93% 30.01 in 3.0 mi NW 19.6 mph - N/A   Overcast
9:35 AM 26.6 °F 13.4 °F 26.6 °F 100% 30.02 in 0.8 mi NW 18.4 mph 27.6 mph N/A Snow Light Snow
9:55 AM 26.6 °F 11.7 °F 24.8 °F 93% 30.03 in 2.0 mi NNW 24.2 mph 31.1 mph N/A Snow Light Snow
10:15 AM 26.6 °F 11.1 °F 23.0 °F 86% 30.04 in 3.0 mi NNW 26.5 mph 33.4 mph N/A   Overcast
10:35 AM 26.6 °F 10.8 °F 24.8 °F 93% 30.05 in 2.5 mi NNW 27.6 mph 33.4 mph N/A Rain Light Freezing Rain
10:55 AM 26.6 °F 11.1 °F 23.0 °F 86% 30.06 in 5.0 mi NNW 26.5 mph 33.4 mph N/A   Light Freezing Rain
11:15 AM 26.6 °F 10.8 °F 23.0 °F 86% 30.07 in 7.0 mi NNW 27.6 mph 34.5 mph N/A   Light Freezing Rain
11:35 AM 26.6 °F 10.8 °F 23.0 °F 86% 30.08 in 9.0 mi NNW 27.6 mph 38.0 mph N/A   Light Freezing Rain
11:55 AM 26.6 °F 11.4 °F 21.2 °F 80% 30.09 in 10.0 mi NNW 25.3 mph 35.7 mph N/A   Overcast
12:15 PM 26.6 °F 10.8 °F 23.0 °F 86% 30.10 in 9.0 mi NNW 27.6 mph - N/A Rain Light Freezing Rain
12:35 PM 26.6 °F 10.6 °F 23.0 °F 86% 30.10 in 10.0 mi NNW 28.8 mph 36.8 mph N/A   Light Freezing Rain
12:55 PM 26.6 °F 10.3 °F 21.2 °F 80% 30.11 in 9.0 mi NNW 29.9 mph 40.3 mph N/A Rain Light Freezing Rain
1:15 PM 28.4 °F 13.5 °F 23.0 °F 80% 30.12 in 8.0 mi NNW 26.5 mph 39.1 mph N/A Rain Light Freezing Rain
1:35 PM 28.4 °F 13.5 °F 23.0 °F 80% 30.12 in 5.0 mi NNW 26.5 mph 36.8 mph N/A Snow Light Snow
1:55 PM 28.4 °F 13.5 °F 23.0 °F 80% 30.13 in 8.0 mi NNW 26.5 mph 35.7 mph N/A Rain Light Freezing Rain
2:15 PM 28.4 °F 13.8 °F 23.0 °F 80% 30.14 in 10.0 mi NNW 25.3 mph 33.4 mph N/A   Light Freezing Rain
2:35 PM 26.6 °F 11.4 °F 21.2 °F 80% 30.15 in 10.0 mi NNW 25.3 mph 34.5 mph N/A   Light Freezing Rain
2:55 PM 26.6 °F 10.6 °F 21.2 °F 80% 30.15 in 10.0 mi NNW 28.8 mph - N/A   Overcast
3:15 PM 26.6 °F 10.6 °F 21.2 °F 80% 30.16 in 10.0 mi NNW 28.8 mph 34.5 mph N/A Rain Light Freezing Rain
3:35 PM 26.6 °F 11.7 °F 21.2 °F 80% 30.17 in 10.0 mi NNW 24.2 mph 32.2 mph N/A   Overcast
3:55 PM 26.6 °F 11.1 °F 21.2 °F 80% 30.18 in 10.0 mi NNW 26.5 mph 33.4 mph N/A Rain Light Freezing Rain
4:15 PM 26.6 °F 12.4 °F 21.2 °F 80% 30.19 in 10.0 mi NNW 21.9 mph 29.9 mph N/A   Light Freezing Rain
4:35 PM 26.6 °F 11.4 °F 19.4 °F 74% 30.20 in 10.0 mi NNW 25.3 mph 34.5 mph N/A Rain Light Freezing Rain
4:55 PM 24.8 °F 8.7 °F 19.4 °F 80% 30.22 in 8.0 mi NNW 26.5 mph 33.4 mph N/A Rain Light Freezing Rain
5:15 PM 24.8 °F 9.6 °F 21.2 °F 86% 30.23 in 10.0 mi NNW 23.0 mph - N/A Rain Light Freezing Rain
5:35 PM 24.8 °F 8.4 °F 19.4 °F 80% 30.24 in 10.0 mi NNW 27.6 mph 34.5 mph N/A   Overcast
5:55 PM 24.8 °F 9.3 °F 19.4 °F 80% 30.25 in 10.0 mi NNW 24.2 mph 29.9 mph N/A   Light Freezing Rain
6:15 PM 24.8 °F 9.6 °F 19.4 °F 80% 30.26 in 9.0 mi NNW 23.0 mph 31.1 mph N/A Rain Light Freezing Rain
6:35 PM 24.8 °F 10.3 °F 19.4 °F 80% 30.26 in 8.0 mi NNW 20.7 mph 28.8 mph N/A Rain Light Freezing Rain
6:55 PM 24.8 °F 10.3 °F 19.4 °F 80% 30.26 in 9.0 mi NNW 20.7 mph 29.9 mph N/A Rain Light Freezing Rain
7:15 PM 24.8 °F 11.1 °F 19.4 °F 80% 30.26 in 10.0 mi NNW 18.4 mph 28.8 mph N/A Rain Light Freezing Rain
7:35 PM 23.0 °F 9.2 °F 19.4 °F 86% 30.27 in 10.0 mi NNW 17.3 mph - N/A Rain Light Freezing Rain
7:55 PM 23.0 °F 9.2 °F 17.6 °F 80% 30.27 in 10.0 mi NNW 17.3 mph - N/A   Mostly Cloudy
8:15 PM 23.0 °F 8.3 °F 19.4 °F 86% 30.28 in 10.0 mi NNW 19.6 mph - N/A   Overcast
8:35 PM 23.0 °F 8.3 °F 19.4 °F 86% 30.29 in 10.0 mi NNW 19.6 mph - N/A   Overcast
8:55 PM 23.0 °F 9.6 °F 19.4 °F 86% 30.28 in - NNW 16.1 mph 25.3 mph N/A   Overcast
9:15 PM 23.0 °F 8.3 °F 19.4 °F 86% 30.29 in 10.0 mi NNW 19.6 mph - N/A   Overcast
9:35 PM 23.0 °F 9.6 °F 19.4 °F 86% 30.29 in 10.0 mi NNW 16.1 mph 23.0 mph N/A   Overcast
9:55 PM 23.0 °F 8.7 °F 19.4 °F 86% 30.30 in 10.0 mi North 18.4 mph - N/A   Overcast
10:15 PM 23.0 °F 9.6 °F 19.4 °F 86% 30.32 in 10.0 mi NNW 16.1 mph - N/A   Overcast
10:35 PM 23.0 °F 9.6 °F 19.4 °F 86% 30.32 in 10.0 mi NNW 16.1 mph - N/A   Overcast
10:55 PM 23.0 °F 9.6 °F 19.4 °F 86% 30.32 in 10.0 mi NNW 16.1 mph - N/A   Overcast
11:15 PM 23.0 °F 9.6 °F 19.4 °F 86% 30.32 in 10.0 mi NNW 16.1 mph - N/A   Overcast
11:35 PM 21.2 °F 7.8 °F 19.4 °F 93% 30.32 in 10.0 mi North 15.0 mph - N/A   Overcast
11:55 PM 21.2 °F 8.3 °F 19.4 °F 93% 30.33 in 10.0 mi North 13.8 mph - N/A   Overcast